Location: Airlie Beach - Cannonvale QLD, Australia
(20.2768°S, 148.7558°E)
Time: 04:56:39
(UTC+10:00)

Hubble Space Telescope - Pass Details

Date: 04 April 2023
Orbit: 525 x 528 km, 28.5° (Epoch: 31 May)

Event Time Altitude Azimuth Distance (km) Brightness Sun altitude
Exits shadow 05:38:49 11° 274° (W) 1,687 2.6 -8.8°
Maximum altitude 05:42:35 52° 198° (SSW) 655 1.1 -7.9°
Drops below altitude 10° 05:46:35 10° 120° (ESE) 1,766 4.4 -7.0°
Sets 05:48:53 0° 115° (ESE) 2,656 5.6 -6.4°
